Zurück zum Katalog

CZ-6A DEB

AktivPO
NORAD 64650·DEBRIS·🇨🇳 China

Gestartet Aug 6, 2024 von Taiyuan Satellite Launch Center

Loading…

Nächste Überflüge (nächste 24 Stunden)

TLE

AktuellSource: Space-Track

Epoche: Sep 14, 2026, 10:01 UTC

1 64650U 24140AEQ 26257.41756210  .00019785  00000-0  15712-2 0  9998
2 64650  88.9408 251.1389 0048568 212.0501 147.7779 14.99445143104383

Verfolge CZ-6A DEB in Echtzeit mit AllMySat

Download on the App Store